HAWK-A

导读

HAWK-A是美国发射的"鹰眼开拓者"Hawkeye Pathfinder星座首颗小卫星,于2018年12月3日搭乘SpaceX猎鹰9号Block5火箭,从范登堡SLC-4E工位发射升空。卫星质量仅13千克,运行在倾角97.77°、近地点577km远地点590km的近地轨道,依靠太阳能电池与蓄电池供电,属于美国低轨道小卫星组网试验任务。

基本信息
目录编号:
43765
目录名称:
HAWK-A
国际标识:
2018-099H
轨道中心:
EARTH
卫星名称:
HAWK-A
卫星全名:
--
卫星状态:
在轨 (已飞行2832 天)
发射日期:
2018-12-03 UTC
国别 :
美国 (US)
星等 :
--
轨道信息
数据来源 国际轨道数据
星历时间: 2026-09-03T10:21:20+0800
1天前
查看轨道信息
半长轴: 6867.3km
偏心率: 0.0034307
轨道倾角: 97.384°
近地点辐角 13.886°
升交点赤经 297.333°
平近点角 346.332°
近地点: 465.603km
远地点: 512.723km
周期: 94.393分钟
每日圈数: 15.255406
详细信息
使用方式:
暂无
2D轨道图
3D轨道图
轨道高度分析图
轨道倾角分析图
轨道综合分析图
查看轨道综合分析图
交会数据列表
事件ID 空间交会对象 最接近时刻(TCA) 交会距离 交会风险概率(CRP) 交会风险指数(CRI) 操作
CDM_260827-204904-376504-847121
HAWK-A (43765)
2026-08-27T
20:49:28+0000
0.436 km
远距离
2.732734E-4 高风险 0.84
CDM_260904-122802-654704-376526
UNISAT (26547)
HAWK-A (43765)
2026-09-04T
12:28:47+0000
1.696 km
极远距离
3.605153E-6 低风险 0.46
CDM_260901-031904-376505-392023
HAWK-A (43765)
2026-09-01T
03:19:42+0000
2.007 km
极远距离
2.033999E-6 低风险 0.41
CDM_260905-075404-376506-519221
HAWK-A (43765)
2026-09-05T
07:54:45+0000
2.691 km
极远距离
1.574251E-6 低风险 0.39
CDM_260904-235404-376506-032921
HAWK-A (43765)
2026-09-04T
23:54:12+0000
2.348 km
极远距离
1.194506E-6 低风险 0.37